Location: Clarion
(42.7316°N, 93.7330°W)
Time: 09:19:55
(UTC+00:00)

Meteor 2-11 Rocket - Pass Details

Date: 22 April 2026
Orbit: 939 x 956 km, 82.5° (Epoch: 17 May)

Event Time Altitude Azimuth Distance (km) Brightness Sun altitude
Rises 09:57:37 0° 348° (NNW) 3,644 7.8 -14.9°
Reaches altitude 10° 10:00:09 10° 345° (NNW) 2,693 7.0 -14.5°
Maximum altitude 10:06:11 60° 267° (W) 1,083 4.5 -13.5°
Drops below altitude 10° 10:12:10 10° 189° (S) 2,667 6.4 -12.6°
Sets 10:14:41 0° 185° (S) 3,606 7.1 -12.2°
